Location: Asheville, NC
(35.6000°N, 82.5500°W)
Time: 16:35:56
(UTC-05:00)

Vanguard 2 - Pass Details

Date: 09 December 2017
Orbit: 552 x 2940 km, 32.9° (Epoch: 17 January)

Event Time Altitude Azimuth Distance (km) Brightness Sun altitude
Rises 19:08:42 0° 263° (W) 3,069 12.1 -22.0°
Reaches altitude 10° 19:11:17 10° 260° (W) 1,983 10.8 -22.6°
Maximum altitude 19:15:30 60° 180° (S) 632 7.0 -23.4°
Enters shadow 19:15:33 60° 175° (S) 632 7.0 -23.4°
